International Virtual Aviation Organisation

Russian Federation and Kazakhstan MCD

 

Карточка аэропорта UWUU

Внимание!
Информация на этой странице в стадии наполнения.
Если вы не увидели какой-то информации, или заметили неточность - пожалуйста сообщите нам!
Спасибо!
Команда RU-STAFF
Название аэропортаУфа
Название аэропорта (англ.)Ufa
Превышение449 ft. (136.9 m.)
Координаты54°33.6', 55°52.2'
Высота перехода5000ft
Эшелон переходаFL070
Коды ответчика6730-6731
Зона ОрВДСамара РПИ (UWWW)
Данные METARUWUU 281100Z 08002MPS 4000 BR BKN029 M07/M07 Q1038 R32L/421042 NOSIG
Проноз погоды (TAF)UWUU 280749Z 2809/2909 VRB01MPS 4000 -SN BR OVC016 TXM05/2810Z TNM14/2903Z TEMPO 2811/2909 13003MPS 0300 FZFG VV002
NOTAMshow/hide NOTAM
AWOS   TABLE

Информация о ВПП

ВПП Длина ВПП (м.) Покрытие Курс ВПП Частота ILS
32L3765Бетон318 
14L2516Асфальтобетон138108.3
32R2516Асфальтобетон318109.1
14R3765Бетон138110.3

Диспетчерские позиции

Позывной Наименование органа УВД Частота
UWUU_GNDУфа-Руление119.000
UWUU_TWRУфа-Старт120.900
UWUU_R_APPУфа-Круг124.000
UWUU_APPУфа-Подход126.000



Спутниковое изображение